sat.trackr.live / text

‹ back to catalog

STARLINK-3513

NORAD 51756 · 2022-016AU

PAYLOAD ACTIVE UNKNOWN

§ Identity

Operator
Country
US
Launch date
2022-02-21
Launch site
AFETR
Launch vehicle
Mass (kg)
RCS (m²)

Purposes: comms

External: N2YO · Heavens-Above · Gunter

§ Orbital elements

Epoch: 2026-09-20T03:31:15.991104Z

Period
93.90 min
Inclination
53.1589°
Eccentricity
0.0001490
Mean motion
15.33537017 rev/d
Perigee alt
464.2 km
Apogee alt
466.3 km
Semi-major
6,843.4 km
B*
1.3727e-4
RAAN
141.5037°
Arg perigee
86.1500°
Mean anomaly
273.9673°
Rev number
25,326

§ Raw data

STARLINK-35131 51756U 22016AU  26263.14671286  .00004142  00000+0  13727-3 0  99922 51756  53.1589 141.5037 0001490  86.1500 273.9673 15.33537017253262

JSON: /api/v1/satellites/51756 · /tle

For live sub-satellite position, see the globe view (requires WebGL).

§ Visibility from observer

Set your observer location to see the next 7 days of passes ≥ 10°. The values pass through the URL so the page stays shareable.

No JS? Fill the form by hand. The geolocation button needs JavaScript.